Content
SEND FEEDBACK

Daily
Averages
Monthly
Summary
United States of America

YIGO, GUAM


Home > North America > United States > Guam
Elevation: 530 feet     Latitude: 13 32N     Longitude: 144 53E

WEATHER
 
SELECT A DAY
Number of Records: 208,919;   Date Range: 1/1/95 - 7/23/14
 
SHARE

PRINT THIS DATA

[ ← Previous Day ]
WEATHER ALMANAC - JANUARY 12, 2014
[ Next Day → ]
[ °C ]   °F
Weather ElementAverageHighLow
Temperature80.8 °F87.1 °F (2:54 pm)75.9 °F (6:54 am)
Dewpoint73.4 °F77 °F (8:31 pm)70 °F (1:54 am)
Humidity78.8 %96 % (9:54 pm)61 % (2:54 pm)
Barometer29.85 in29.90 in (7:54 am)29.80 in (2:54 pm)
Wind Speed12.4 mph23 mph (1:54 pm)
Wind Gust27.6 mph (11:54 am)
Weather ElementAverage
Visibility9.7 mi
Wind DirectionENE (70.7 °)

Weather ElementTotal
Precipitation0.15 in
Cooling Degree Days16.5 (Base 65)
Growing Degree Days31.5 (Base 50)
Averaged from 30 records on January 12, 2014
WEATHER CONDITIONS BREAKOUT
WIND DIRECTION BREAKOUT
WEATHER BY HOUR - JANUARY 12, 2014
[ °C ]   °F
Local TimeTemperatureDewpointHumidityBarometerVisibilityWind DirectionWind SpeedGust SpeedPrecipitationEventsConditions
1:54 AM79.0 °F70.0 °F74 %29.87 in10.0 miEast (80°)11.5 mphPartly Cloudy
2:54 AM79.0 °F71.1 °F77 %29.87 in10.0 miENE (60°)9.2 mphScattered Clouds
3:54 AM78.1 °F71.1 °F79 %29.86 in10.0 miENE (60°)9.2 mphPartly Cloudy
4:54 AM78.1 °F70.0 °F76 %29.86 in10.0 miENE (70°)9.2 mphClear
5:54 AM77.0 °F71.1 °F82 %29.86 in10.0 miNE (50°)8.1 mphClear
6:54 AM75.9 °F72.0 °F87 %29.88 in10.0 miNE (50°)6.9 mphPartly Cloudy
7:54 AM79.0 °F72.0 °F79 %29.90 in10.0 miNE (50°)8.1 mphClear
8:54 AM82.0 °F72.0 °F71 %29.90 in10.0 miENE (60°)15.0 mphPartly Cloudy
9:54 AM82.0 °F73.9 °F76 %29.90 in10.0 miNE (50°)16.1 mphMostly Cloudy
10:54 AM84.9 °F72.0 °F65 %29.89 in10.0 miNE (50°)17.3 mph23.0 mphScattered Clouds
11:54 AM84.0 °F73.0 °F69 %29.87 in10.0 miNE (40°)20.7 mph27.6 mph0.00 inRainLight Rain
12:54 PM84.0 °F73.0 °F69 %29.84 in10.0 miENE (60°)19.6 mph26.5 mph0.00 inMostly Cloudy
1:54 PM84.9 °F72.0 °F65 %29.81 in10.0 miNE (50°)23.0 mphMostly Cloudy
2:54 PM87.1 °F72.0 °F61 %29.80 in10.0 miNE (40°)19.6 mph25.3 mphMostly Cloudy
3:54 PM84.9 °F73.0 °F67 %29.80 in10.0 miNE (40°)19.6 mph27.6 mphScattered Clouds
4:13 PM84.2 °F73.4 °F70 %29.82 in10.0 miNE (40°)19.6 mphMostly Cloudy
4:32 PM84.2 °F73.4 °F70 %29.83 in10.0 miNE (40°)17.3 mphPartly Cloudy
4:54 PM84.0 °F73.0 °F69 %29.81 in10.0 miNE (50°)15.0 mphScattered Clouds
5:54 PM82.0 °F73.9 °F76 %29.82 in10.0 miENE (70°)9.2 mphMostly Cloudy
6:08 PM80.6 °F75.2 °F84 %29.84 in10.0 miNE (50°)15.0 mphScattered Clouds
6:54 PM80.1 °F75.0 °F85 %29.83 in10.0 miEast (80°)8.1 mphPartly Cloudy
7:54 PM80.1 °F75.0 °F85 %29.84 in10.0 miEast (80°)6.9 mphMostly Cloudy
8:31 PM80.6 °F77.0 °F89 %29.87 in5.0 miESE (110°)9.2 mph0.02 inRainHeavy Rain
8:54 PM80.1 °F75.9 °F87 %29.86 in10.0 miESE (110°)10.4 mph0.03 inMostly Cloudy
9:03 PM80.6 °F75.2 °F84 %29.88 in10.0 miEast (100°)10.4 mphMostly Cloudy
9:43 PM77.0 °F75.2 °F94 %29.88 in5.0 miESE (110°)8.1 mph0.05 inRainLight Rain
9:54 PM77.0 °F75.9 °F96 %29.86 in10.0 miSE (130°)6.9 mph0.05 inMostly Cloudy
10:01 PM77.0 °F75.2 °F94 %29.88 in10.0 miESE (120°)5.8 mphScattered Clouds
10:54 PM77.2 °F75.0 °F93 %29.85 in10.0 miESE (110°)9.2 mphPartly Cloudy
11:54 PM78.3 °F75.0 °F90 %29.85 in10.0 miESE (110°)9.2 mphPartly Cloudy
Hourly data recorded from PGUM, located miles away from Yigo, Guam







STORIES FROM OUR PARTNERS